SAS1017 ESNS-ESSA

Flight info

Callsign SAS1017
Flight time 0h 53m
Altitude 38000
Route KETEL DCT BODRI DCT SIPRI T31 VACRA
Aircraft A320/M-SDE3FGHIRWY/LB1

Departure

Time 2026-04-12 10:04
Airport Skellefteå Airport (ESNS)

Arrival

Time 2026-04-12 10:57
Airport Stockholm-Arlanda Airport (ESSA)
Time Latitude Longitude Altitude Speed Heading
2026-04-12 09:13 64.62375 21.06791 160 ft 0 kts 237°
2026-04-12 10:00 64.62375 21.06789 160 ft 0 kts 237°
2026-04-12 10:01 64.62375 21.06779 160 ft 1 kts 260°
2026-04-12 10:01 64.62390 21.06751 160 ft 4 kts 346°
2026-04-12 10:01 64.62428 21.06771 160 ft 8 kts 17°
2026-04-12 10:01 64.62504 21.06825 160 ft 13 kts 18°
2026-04-12 10:02 64.62581 21.06793 160 ft 15 kts 306°
2026-04-12 10:02 64.62627 21.06506 156 ft 24 kts 286°
2026-04-12 10:02 64.62678 21.06096 157 ft 27 kts 286°
2026-04-12 10:02 64.62692 21.05737 161 ft 14 kts 267°
2026-04-12 10:03 64.62724 21.05650 162 ft 4 kts 31°
2026-04-12 10:03 64.62724 21.05715 162 ft 6 kts 105°
2026-04-12 10:03 64.62692 21.05974 157 ft 43 kts 106°
2026-04-12 10:03 64.62542 21.07177 161 ft 107 kts 106°
2026-04-12 10:04 64.62290 21.09228 230 ft 148 kts 105°
2026-04-12 10:04 64.61990 21.11515 810 ft 150 kts 107°
2026-04-12 10:04 64.61674 21.13897 1322 ft 163 kts 109°
2026-04-12 10:04 64.61338 21.16594 1692 ft 182 kts 112°
2026-04-12 10:05 64.60563 21.19002 2056 ft 197 kts 149°
2026-04-12 10:05 64.59222 21.20003 2494 ft 215 kts 176°
2026-04-12 10:05 64.57642 21.20156 3012 ft 237 kts 179°
2026-04-12 10:05 64.55963 21.20179 3938 ft 244 kts 180°
2026-04-12 10:06 64.54253 21.20152 4940 ft 247 kts 181°
2026-04-12 10:06 64.52550 21.20115 5921 ft 250 kts 180°
2026-04-12 10:06 64.50775 21.20084 6906 ft 254 kts 180°
2026-04-12 10:06 64.49019 21.20054 7783 ft 257 kts 180°
2026-04-12 10:07 64.47217 21.20027 8680 ft 261 kts 179°
2026-04-12 10:07 64.45388 21.20000 9564 ft 265 kts 179°
2026-04-12 10:07 64.43528 21.19976 10435 ft 269 kts 179°
2026-04-12 10:07 64.41596 21.19955 10856 ft 289 kts 179°
2026-04-12 10:08 64.39504 21.19938 11097 ft 312 kts 179°
2026-04-12 10:08 64.37279 21.19925 11557 ft 325 kts 179°
2026-04-12 10:08 64.34996 21.19907 12216 ft 331 kts 179°
2026-04-12 10:08 64.32677 21.19877 12932 ft 335 kts 179°
2026-04-12 10:09 64.30330 21.19845 13653 ft 340 kts 179°
2026-04-12 10:09 64.27951 21.19814 14355 ft 344 kts 179°
2026-04-12 10:09 64.25545 21.19785 14994 ft 347 kts 179°
2026-04-12 10:09 64.23118 21.19754 15643 ft 350 kts 179°
2026-04-12 10:10 64.20670 21.19544 16268 ft 355 kts 185°
2026-04-12 10:10 64.18245 21.18347 16895 ft 360 kts 196°
2026-04-12 10:10 64.15874 21.16405 17537 ft 363 kts 198°
2026-04-12 10:10 64.13485 21.14431 18187 ft 367 kts 197°
2026-04-12 10:11 64.11070 21.12453 18820 ft 370 kts 197°
2026-04-12 10:11 64.08633 21.10470 19407 ft 373 kts 197°
2026-04-12 10:11 64.06174 21.08477 20020 ft 376 kts 197°
2026-04-12 10:11 64.03697 21.06471 20641 ft 379 kts 197°
2026-04-12 10:12 64.01199 21.04441 21234 ft 382 kts 197°
2026-04-12 10:12 63.98684 21.02401 21809 ft 385 kts 197°
2026-04-12 10:12 63.96148 21.00355 22357 ft 388 kts 197°
2026-04-12 10:12 63.93595 20.98304 22896 ft 391 kts 197°
2026-04-12 10:13 63.91021 20.96235 23429 ft 394 kts 197°
2026-04-12 10:13 63.88431 20.94155 23932 ft 397 kts 197°
2026-04-12 10:13 63.85819 20.92058 24364 ft 399 kts 197°
2026-04-12 10:13 63.83194 20.89954 24794 ft 401 kts 197°
2026-04-12 10:14 63.80555 20.87848 25218 ft 403 kts 196°
2026-04-12 10:14 63.77902 20.85736 25653 ft 405 kts 196°
2026-04-12 10:14 63.75239 20.83615 26069 ft 407 kts 196°
2026-04-12 10:14 63.72563 20.81488 26472 ft 409 kts 196°
2026-04-12 10:15 63.69873 20.79356 26872 ft 411 kts 196°
2026-04-12 10:15 63.67171 20.77221 27271 ft 413 kts 196°
2026-04-12 10:15 63.64492 20.75105 27666 ft 415 kts 196°
2026-04-12 10:15 63.61726 20.72929 28059 ft 417 kts 196°
2026-04-12 10:16 63.58982 20.70772 28443 ft 419 kts 196°
2026-04-12 10:16 63.56261 20.68640 28819 ft 421 kts 196°
2026-04-12 10:16 63.53491 20.66480 29189 ft 423 kts 196°
2026-04-12 10:16 63.50706 20.64313 29544 ft 425 kts 196°
2026-04-12 10:17 63.47908 20.62134 29907 ft 427 kts 195°
2026-04-12 10:17 63.45094 20.59947 30249 ft 429 kts 195°
2026-04-12 10:17 63.42280 20.57759 30681 ft 428 kts 195°
2026-04-12 10:17 63.39476 20.55580 31107 ft 427 kts 195°
2026-04-12 10:18 63.36674 20.53405 31527 ft 426 kts 195°
2026-04-12 10:18 63.33881 20.51241 31947 ft 425 kts 195°
2026-04-12 10:18 63.31089 20.49086 32371 ft 424 kts 195°
2026-04-12 10:18 63.28306 20.46951 32797 ft 423 kts 195°
2026-04-12 10:19 63.25525 20.44825 33222 ft 422 kts 195°
2026-04-12 10:19 63.22749 20.42705 33652 ft 421 kts 195°
2026-04-12 10:19 63.19979 20.40596 34085 ft 421 kts 195°
2026-04-12 10:19 63.17212 20.38494 34501 ft 420 kts 195°
2026-04-12 10:20 63.14450 20.36398 34854 ft 420 kts 195°
2026-04-12 10:20 63.11685 20.34302 35188 ft 420 kts 195°
2026-04-12 10:20 63.08922 20.32206 35513 ft 420 kts 195°
2026-04-12 10:20 63.06153 20.30110 35819 ft 421 kts 195°
2026-04-12 10:21 63.03385 20.28024 36122 ft 421 kts 195°
2026-04-12 10:21 63.00614 20.25941 36417 ft 421 kts 195°
2026-04-12 10:21 62.97838 20.23854 36711 ft 422 kts 195°
2026-04-12 10:21 62.95062 20.21766 37004 ft 422 kts 195°
2026-04-12 10:22 62.92283 20.19683 37284 ft 422 kts 196°
2026-04-12 10:22 62.89501 20.17603 37553 ft 423 kts 195°
2026-04-12 10:22 62.86708 20.15521 37793 ft 424 kts 195°
2026-04-12 10:22 62.83914 20.13444 38047 ft 425 kts 195°
2026-04-12 10:23 62.81114 20.11367 38291 ft 425 kts 195°
2026-04-12 10:23 62.75489 20.07206 38366 ft 428 kts 195°
2026-04-12 10:24 62.69859 20.03054 38366 ft 428 kts 195°
2026-04-12 10:24 62.64217 19.98922 38361 ft 428 kts 195°
2026-04-12 10:25 62.58569 19.94791 38359 ft 429 kts 195°
2026-04-12 10:25 62.52910 19.90669 38359 ft 429 kts 195°
2026-04-12 10:26 62.47244 19.86565 38362 ft 429 kts 195°
2026-04-12 10:26 62.41574 19.82466 38362 ft 430 kts 195°
2026-04-12 10:27 62.35901 19.78382 38365 ft 430 kts 195°
2026-04-12 10:27 62.30223 19.74314 38370 ft 430 kts 195°
2026-04-12 10:28 62.24578 19.70294 38362 ft 431 kts 195°
2026-04-12 10:28 62.18889 19.66248 38353 ft 431 kts 195°
2026-04-12 10:29 62.13196 19.62208 38356 ft 431 kts 195°
2026-04-12 10:29 62.07496 19.58179 38353 ft 432 kts 195°
2026-04-12 10:30 62.01786 19.54166 38365 ft 432 kts 194°
2026-04-12 10:30 61.96067 19.50166 38353 ft 433 kts 194°
2026-04-12 10:31 61.90498 19.46293 38355 ft 434 kts 194°
2026-04-12 10:31 61.84759 19.42313 38350 ft 434 kts 194°
2026-04-12 10:32 61.79019 19.38329 38351 ft 434 kts 194°
2026-04-12 10:32 61.73269 19.34367 38356 ft 435 kts 194°
2026-04-12 10:33 61.67686 19.30538 38351 ft 436 kts 194°
2026-04-12 10:33 61.61953 19.26615 38347 ft 437 kts 194°
2026-04-12 10:34 61.56168 19.22687 38346 ft 437 kts 194°
2026-04-12 10:34 61.50378 19.18770 38349 ft 437 kts 194°
2026-04-12 10:35 61.44585 19.14851 38353 ft 438 kts 194°
2026-04-12 10:35 61.38778 19.10937 38346 ft 439 kts 194°
2026-04-12 10:35 61.35878 19.08982 38216 ft 437 kts 194°
2026-04-12 10:36 61.32987 19.07034 37616 ft 436 kts 194°
2026-04-12 10:36 61.30101 19.05098 37009 ft 435 kts 194°
2026-04-12 10:36 61.27221 19.03179 36415 ft 434 kts 194°
2026-04-12 10:36 61.24356 19.01275 35832 ft 432 kts 194°
2026-04-12 10:37 61.21497 18.99381 35239 ft 430 kts 194°
2026-04-12 10:37 61.18651 18.97498 34658 ft 429 kts 194°
2026-04-12 10:37 61.15807 18.95618 33938 ft 430 kts 194°
2026-04-12 10:37 61.12956 18.93739 33158 ft 430 kts 194°
2026-04-12 10:38 61.11070 18.92495 32645 ft 430 kts 194°
2026-04-12 10:38 61.08221 18.90612 31865 ft 430 kts 194°
2026-04-12 10:38 61.05370 18.88729 31073 ft 430 kts 193°
2026-04-12 10:38 61.02523 18.86849 30257 ft 430 kts 193°
2026-04-12 10:39 60.99679 18.84976 29472 ft 427 kts 193°
2026-04-12 10:39 60.96867 18.83136 28784 ft 422 kts 193°
2026-04-12 10:39 60.94085 18.81324 28094 ft 417 kts 193°
2026-04-12 10:39 60.91332 18.79536 27419 ft 413 kts 193°
2026-04-12 10:40 60.88600 18.77765 26753 ft 410 kts 193°
2026-04-12 10:40 60.85890 18.76014 26104 ft 407 kts 193°
2026-04-12 10:40 60.83198 18.74277 25474 ft 404 kts 193°
2026-04-12 10:40 60.80530 18.72555 24862 ft 401 kts 193°
2026-04-12 10:41 60.77884 18.70845 24264 ft 398 kts 193°
2026-04-12 10:41 60.75252 18.69147 23651 ft 395 kts 192°
2026-04-12 10:41 60.72640 18.67469 22990 ft 392 kts 192°
2026-04-12 10:41 60.70050 18.65803 22391 ft 389 kts 193°
2026-04-12 10:42 60.67479 18.64151 21814 ft 386 kts 192°
2026-04-12 10:42 60.64924 18.62516 21276 ft 383 kts 192°
2026-04-12 10:42 60.62390 18.60899 20749 ft 380 kts 192°
2026-04-12 10:42 60.59878 18.59299 20286 ft 377 kts 192°
2026-04-12 10:43 60.54914 18.56135 19264 ft 371 kts 192°
2026-04-12 10:43 60.52457 18.54572 18746 ft 369 kts 192°
2026-04-12 10:43 60.50014 18.53020 18166 ft 367 kts 192°
2026-04-12 10:44 60.47589 18.51485 17571 ft 364 kts 192°
2026-04-12 10:44 60.45179 18.49965 16992 ft 361 kts 193°
2026-04-12 10:44 60.42791 18.48463 16403 ft 358 kts 193°
2026-04-12 10:44 60.40421 18.46973 15839 ft 356 kts 193°
2026-04-12 10:45 60.38066 18.45496 15263 ft 353 kts 193°
2026-04-12 10:45 60.35733 18.44034 14947 ft 351 kts 193°
2026-04-12 10:45 60.33394 18.42574 14610 ft 351 kts 193°
2026-04-12 10:45 60.31073 18.41125 14069 ft 348 kts 194°
2026-04-12 10:46 60.28764 18.39683 13459 ft 346 kts 194°
2026-04-12 10:46 60.26523 18.37909 12742 ft 349 kts 201°
2026-04-12 10:46 60.24287 18.35896 11928 ft 351 kts 201°
2026-04-12 10:46 60.22151 18.33940 11741 ft 322 kts 201°
2026-04-12 10:47 60.20217 18.32159 11541 ft 300 kts 201°
2026-04-12 10:47 60.18331 18.30434 11072 ft 288 kts 201°
2026-04-12 10:47 60.16544 18.28812 10497 ft 284 kts 201°
2026-04-12 10:47 60.14745 18.27188 10332 ft 279 kts 201°
2026-04-12 10:48 60.12968 18.25596 10089 ft 282 kts 201°
2026-04-12 10:48 60.11184 18.24001 9627 ft 283 kts 201°
2026-04-12 10:48 60.09399 18.22403 9323 ft 280 kts 201°
2026-04-12 10:48 60.07624 18.20813 8953 ft 279 kts 202°
2026-04-12 10:49 60.05859 18.19231 8600 ft 277 kts 202°
2026-04-12 10:49 60.04105 18.17663 8272 ft 275 kts 202°
2026-04-12 10:49 60.02362 18.16107 7895 ft 272 kts 202°
2026-04-12 10:49 60.00823 18.14731 7332 ft 269 kts 202°
2026-04-12 10:50 59.99122 18.13205 6737 ft 267 kts 202°
2026-04-12 10:50 59.97439 18.11703 6140 ft 263 kts 202°
2026-04-12 10:50 59.95775 18.10223 5497 ft 262 kts 202°
2026-04-12 10:50 59.94125 18.08757 4860 ft 259 kts 202°
2026-04-12 10:51 59.92485 18.07297 4176 ft 259 kts 201°
2026-04-12 10:51 59.90870 18.05861 3824 ft 247 kts 202°
2026-04-12 10:51 59.89346 18.04506 3686 ft 235 kts 202°
2026-04-12 10:51 59.87883 18.03207 3565 ft 225 kts 201°
2026-04-12 10:52 59.86487 18.01972 3477 ft 215 kts 201°
2026-04-12 10:52 59.85144 18.00791 3382 ft 208 kts 201°
2026-04-12 10:52 59.83855 17.99656 3281 ft 197 kts 201°
2026-04-12 10:52 59.82616 17.98570 3197 ft 193 kts 198°
2026-04-12 10:53 59.81347 17.97820 3156 ft 187 kts 189°
2026-04-12 10:53 59.80074 17.97287 2886 ft 187 kts 188°
2026-04-12 10:53 59.78817 17.96812 2623 ft 181 kts 187°
2026-04-12 10:53 59.77608 17.96366 2385 ft 171 kts 187°
2026-04-12 10:54 59.76477 17.95953 2161 ft 161 kts 187°
2026-04-12 10:54 59.75375 17.95551 1951 ft 161 kts 188°
2026-04-12 10:54 59.74289 17.95156 1729 ft 158 kts 187°
2026-04-12 10:54 59.73253 17.94777 1509 ft 143 kts 187°
2026-04-12 10:55 59.72307 17.94433 1321 ft 135 kts 188°
2026-04-12 10:55 59.71393 17.94104 1126 ft 132 kts 187°
2026-04-12 10:55 59.70482 17.93775 926 ft 133 kts 187°
2026-04-12 10:55 59.69582 17.93439 743 ft 133 kts 188°
2026-04-12 10:56 59.68673 17.93093 588 ft 133 kts 187°
2026-04-12 10:56 59.67751 17.92781 405 ft 134 kts 187°
2026-04-12 10:56 59.66843 17.92451 217 ft 135 kts 188°
2026-04-12 10:56 59.65977 17.92144 116 ft 117 kts 188°
2026-04-12 10:57 59.65340 17.91912 105 ft 70 kts 191°
2026-04-12 10:57 59.64942 17.91762 105 ft 50 kts 190°
2026-04-12 10:57 59.64664 17.91726 107 ft 33 kts 171°
2026-04-12 10:57 59.64506 17.91817 108 ft 16 kts 156°
2026-04-12 10:58 59.64496 17.91962 111 ft 13 kts 33°
2026-04-12 10:58 59.64597 17.92001 110 ft 17 kts
2026-04-12 10:58 59.64725 17.92045 108 ft 21 kts 10°
2026-04-12 10:58 59.64885 17.92101 106 ft 25 kts 10°
2026-04-12 10:59 59.65068 17.92165 107 ft 28 kts 10°
2026-04-12 10:59 59.65266 17.92239 106 ft 30 kts 11°
2026-04-12 10:59 59.65419 17.92328 103 ft 17 kts 37°
2026-04-12 10:59 59.65511 17.92512 105 ft 20 kts 57°
2026-04-12 11:00 59.65553 17.92790 108 ft 22 kts 76°
2026-04-12 11:00 59.65588 17.93074 110 ft 13 kts 82°
2026-04-12 11:00 59.65521 17.93172 112 ft 13 kts 166°
2026-04-12 11:00 59.65437 17.93237 112 ft 15 kts 156°
2026-04-12 11:01 59.65331 17.93297 112 ft 12 kts 166°
2026-04-12 11:01 59.65305 17.93290 112 ft 4 kts 220°
2026-04-12 11:01 59.65292 17.93224 112 ft 6 kts 251°
2026-04-12 11:01 59.65283 17.93174 110 ft 1 kts 251°
2026-04-12 11:02 59.65283 17.93171 110 ft 0 kts 251°